| time (UTC) | temp F | wind direction | speed knots | gust knots | rain 1hr in | rain 24hr in | rain mn in | humidity % | barometer mb |
| 20260510201919 | 75 | 255 | 0.0 | 2.6 | 0.00 | 0.00 | 0.00 | 73 | 1020.5 |
| 20260510201416 | 75 | 267 | 0.9 | 0.9 | 0.00 | 0.00 | 0.00 | 72 | 1020.7 |
| 20260510200913 | 75 | 298 | 0.0 | 0.9 | 0.00 | 0.00 | 0.00 | 72 | 1020.4 |
| 20260510200412 | 76 | 244 | 0.9 | 1.7 | 0.00 | 0.00 | 0.00 | 71 | 1020.4 |
| 20260510195906 | 76 | 186 | 2.6 | 4.3 | 0.00 | 0.00 | 0.00 | 70 | 1020.7 |
| 20260510195404 | 76 | 238 | 0.9 | 1.7 | 0.00 | 0.00 | 0.00 | 70 | 1020.5 |
| 20260510194858 | 75 | 267 | 0.9 | 0.9 | 0.00 | 0.00 | 0.00 | 71 | 1020.7 |
| 20260510194355 | 75 | 200 | 1.7 | 1.7 | 0.00 | 0.00 | 0.00 | 70 | 1020.5 |
| 20260510193851 | 74 | 257 | 0.9 | 0.9 | 0.00 | 0.00 | 0.00 | 73 | 1020.5 |
| 20260510193345 | 74 | 268 | 0.0 | 0.0 | 0.00 | 0.00 | 0.00 | 74 | 1020.7 |
| 20260510192841 | 73 | 243 | 0.9 | 0.9 | 0.00 | 0.00 | 0.00 | 73 | 1020.6 |
| 20260510192337 | 74 | 203 | 1.7 | 2.6 | 0.00 | 0.00 | 0.00 | 74 | 1020.9 |
| 20260510191833 | 73 | 259 | 0.0 | 4.3 | 0.00 | 0.00 | 0.00 | 76 | 1020.8 |
| 20260510191329 | 74 | 263 | 0.9 | 1.7 | 0.00 | 0.00 | 0.00 | 74 | 1020.6 |
| 20260510190827 | 75 | 207 | 1.7 | 1.7 | 0.00 | 0.00 | 0.00 | 71 | 1020.7 |
| 20260510190325 | 74 | 322 | 0.9 | 0.9 | 0.00 | 0.00 | 0.00 | 75 | 1020.8 |
| 20260510185820 | 74 | 256 | 0.9 | 1.7 | 0.00 | 0.00 | 0.00 | 73 | 1020.9 |
| 20260510185319 | 75 | 235 | 2.6 | 4.3 | 0.00 | 0.00 | 0.00 | 74 | 1020.8 |
| 20260510184816 | 75 | 241 | 1.7 | 5.2 | 0.00 | 0.00 | 0.00 | 74 | 1021.0 |
| 20260510184312 | 74 | 248 | 0.0 | 0.9 | 0.00 | 0.00 | 0.00 | 75 | 1021.2 |
| 20260510183807 | 75 | 191 | 1.7 | 4.3 | 0.00 | 0.00 | 0.00 | 74 | 1021.1 |
| 20260510183302 | 73 | 237 | 0.9 | 1.7 | 0.00 | 0.00 | 0.00 | 76 | 1021.2 |
| 20260510182758 | 74 | 195 | 2.6 | 4.3 | 0.00 | 0.00 | 0.00 | 75 | 1021.0 |
| 20260510182255 | 74 | 226 | 1.7 | 2.6 | 0.00 | 0.00 | 0.00 | 76 | 1021.1 |
| 20260510181751 | 74 | 202 | 0.9 | 1.7 | 0.00 | 0.00 | 0.00 | 74 | 1021.2 |
| 20260510181248 | 73 | 250 | 0.0 | 2.6 | 0.00 | 0.00 | 0.00 | 77 | 1021.1 |
| 20260510180745 | 73 | 234 | 0.9 | 4.3 | 0.00 | 0.00 | 0.00 | 76 | 1021.3 |
| 20260510180242 | 73 | 220 | 1.7 | 2.6 | 0.00 | 0.00 | 0.00 | 76 | 1021.1 |
| 20260510175739 | 72 | 233 | 0.0 | 1.7 | 0.00 | 0.00 | 0.00 | 78 | 1021.2 |
| 20260510175234 | 73 | 200 | 1.7 | 2.6 | 0.00 | 0.00 | 0.00 | 78 | 1021.2 |
| 20260510174731 | 73 | 225 | 1.7 | 2.6 | 0.00 | 0.00 | 0.00 | 79 | 1021.5 |
| 20260510174229 | 72 | 225 | 0.0 | 0.9 | 0.00 | 0.00 | 0.00 | 83 | 1021.7 |
| 20260510173725 | 71 | 188 | 1.7 | 4.3 | 0.00 | 0.00 | 0.00 | 82 | 1021.6 |
| 20260510173220 | 73 | 215 | 0.9 | 4.3 | 0.00 | 0.00 | 0.00 | 79 | 1021.8 |
| 20260510172716 | 73 | 214 | 1.7 | 1.7 | 0.00 | 0.00 | 0.00 | 80 | 1021.9 |
| 20260510172212 | 71 | 213 | 0.0 | 2.6 | 0.00 | 0.00 | 0.00 | 82 | 1021.8 |
| 20260510171709 | 69 | 212 | 0.0 | 0.9 | 0.00 | 0.00 | 0.00 | 86 | 1021.9 |
| 20260510171207 | 70 | 252 | 0.9 | 2.6 | 0.00 | 0.00 | 0.00 | 86 | 1022.0 |
| 20260510170703 | 70 | 219 | 1.7 | 2.6 | 0.00 | 0.00 | 0.00 | 84 | 1021.9 |
| 20260510170159 | 69 | 180 | 1.7 | 2.6 | 0.00 | 0.00 | 0.00 | 84 | 1022.1 |
| 20260510165656 | 69 | 314 | 0.9 | 0.9 | 0.00 | 0.00 | 0.00 | 85 | 1022.1 |
| 20260510165152 | 69 | 252 | 0.9 | 0.9 | 0.00 | 0.00 | 0.00 | 85 | 1022.1 |
| 20260510164649 | 69 | 267 | 0.0 | 0.0 | 0.00 | 0.00 | 0.00 | 86 | 1022.1 |
| 20260510164147 | 68 | 288 | 0.9 | 1.7 | 0.00 | 0.00 | 0.00 | 87 | 1022.2 |
| 20260510163641 | 69 | 305 | 1.7 | 1.7 | 0.00 | 0.00 | 0.00 | 88 | 1022.2 |
| 20260510163137 | 68 | 290 | 0.0 | 0.9 | 0.00 | 0.00 | 0.00 | 88 | 1022.1 |
| 20260510162631 | 68 | 273 | 0.9 | 0.9 | 0.00 | 0.00 | 0.00 | 88 | 1022.1 |
| 20260510162128 | 68 | 273 | 0.0 | 1.7 | 0.00 | 0.00 | 0.00 | 89 | 1021.9 |
| 20260510161624 | 68 | 305 | 0.9 | 0.9 | 0.00 | 0.00 | 0.00 | 88 | 1022.0 |
| 20260510161121 | 68 | 267 | 0.0 | 0.0 | 0.00 | 0.00 | 0.00 | 89 | 1022.0 |
| 20260510160619 | 67 | 241 | 0.9 | 0.9 | 0.00 | 0.00 | 0.00 | 90 | 1021.9 |
| 20260510160118 | 67 | 212 | 1.7 | 2.6 | 0.00 | 0.00 | 0.00 | 89 | 1022.0 |
| 20260510155615 | 67 | 265 | 0.9 | 0.9 | 0.00 | 0.00 | 0.00 | 90 | 1022.1 |
| 20260510155111 | 68 | 262 | 0.0 | 1.7 | 0.00 | 0.00 | 0.00 | 90 | 1022.1 |
| 20260510154606 | 67 | 261 | 0.9 | 0.9 | 0.00 | 0.00 | 0.00 | 90 | 1022.1 |
| 20260510154102 | 67 | 269 | 0.0 | 0.9 | 0.00 | 0.00 | 0.00 | 92 | 1022.0 |
| 20260510153557 | 67 | 269 | 0.0 | 1.7 | 0.00 | 0.00 | 0.00 | 93 | 1021.9 |
| 20260510153054 | 66 | 240 | 0.0 | 0.9 | 0.00 | 0.00 | 0.00 | 92 | 1022.0 |
| 20260510152551 | 66 | 268 | 0.9 | 1.7 | 0.00 | 0.00 | 0.00 | 92 | 1022.0 |
| 20260510152047 | 65 | 216 | 0.0 | 0.9 | 0.00 | 0.00 | 0.00 | 96 | 1021.9 |
| 20260510151544 | 65 | 300 | 0.0 | 0.0 | 0.00 | 0.00 | 0.00 | 99 | 1022.0 |
| 20260510151042 | 64 | 300 | 0.0 | 0.0 | 0.00 | 0.00 | 0.00 | 99 | 1021.9 |
| 20260510150536 | 64 | 298 | 0.0 | 0.0 | 0.00 | 0.00 | 0.00 | 99 | 1022.1 |
| 20260510150033 | 64 | 298 | 0.0 | 0.0 | 0.00 | 0.00 | 0.00 | 99 | 1022.0 |
| 20260510145530 | 64 | 300 | 0.0 | 0.0 | 0.00 | 0.00 | 0.00 | 99 | 1021.9 |
| 20260510145026 | 64 | 298 | 0.0 | 0.0 | 0.00 | 0.00 | 0.00 | 99 | 1021.9 |
| 20260510144523 | 64 | 290 | 0.0 | 0.0 | 0.00 | 0.00 | 0.00 | 99 | 1022.0 |
| 20260510144019 | 64 | 300 | 0.0 | 0.0 | 0.00 | 0.00 | 0.00 | 99 | 1022.1 |
| 20260510143514 | 64 | 276 | 0.0 | 0.0 | 0.00 | 0.00 | 0.00 | 99 | 1022.1 |
| 20260510143011 | 64 | 290 | 0.0 | 0.0 | 0.00 | 0.00 | 0.00 | 99 | 1021.9 |
| 20260510142508 | 64 | 290 | 0.0 | 0.0 | 0.00 | 0.00 | 0.00 | 99 | 1022.0 |
| 20260510142004 | 63 | 290 | 0.0 | 0.0 | 0.00 | 0.00 | 0.00 | 99 | 1022.1 |
| 20260510141501 | 63 | 289 | 0.0 | 0.0 | 0.00 | 0.00 | 0.00 | 99 | 1021.8 |
| 20260510140958 | 63 | 289 | 0.0 | 0.0 | 0.00 | 0.00 | 0.00 | 99 | 1021.9 |
| 20260510140454 | 63 | 288 | 0.0 | 0.0 | 0.00 | 0.00 | 0.00 | 99 | 1021.9 |
| 20260510135954 | 63 | 296 | 0.0 | 0.0 | 0.00 | 0.00 | 0.00 | 99 | 1021.8 |
| 20260510135449 | 63 | 304 | 0.0 | 0.0 | 0.00 | 0.00 | 0.00 | 99 | 1021.8 |
| 20260510134947 | 63 | 320 | 0.0 | 0.9 | 0.00 | 0.00 | 0.00 | 99 | 1021.9 |
| 20260510134443 | 63 | 285 | 0.0 | 0.9 | 0.00 | 0.00 | 0.00 | 99 | 1021.7 |
| 20260510133941 | 63 | 272 | 0.0 | 1.7 | 0.00 | 0.00 | 0.00 | 99 | 1021.8 |
| 20260510133436 | 63 | 286 | 0.0 | 0.0 | 0.00 | 0.00 | 0.00 | 99 | 1021.8 |
| 20260510132932 | 63 | 285 | 0.0 | 0.0 | 0.00 | 0.00 | 0.00 | 99 | 1021.8 |
| 20260510132430 | 63 | 275 | 0.0 | 0.0 | 0.00 | 0.00 | 0.00 | 99 | 1021.7 |
| 20260510131926 | 62 | 272 | 0.0 | 0.0 | 0.00 | 0.00 | 0.00 | 99 | 1021.8 |
| 20260510131424 | 62 | 238 | 0.9 | 0.9 | 0.00 | 0.00 | 0.00 | 99 | 1021.5 |
| 20260510130920 | 62 | 271 | 0.0 | 0.9 | 0.00 | 0.00 | 0.00 | 99 | 1021.6 |
| 20260510130418 | 63 | 257 | 0.0 | 0.0 | 0.00 | 0.00 | 0.00 | 99 | 1021.3 |
| 20260510125915 | 62 | 272 | 0.0 | 0.0 | 0.00 | 0.00 | 0.00 | 99 | 1021.2 |
| 20260510125410 | 62 | 270 | 0.0 | 1.7 | 0.00 | 0.00 | 0.00 | 99 | 1021.2 |
| 20260510124908 | 62 | 258 | 0.0 | 1.7 | 0.00 | 0.00 | 0.00 | 99 | 1021.5 |
| 20260510124404 | 62 | 265 | 0.0 | 1.7 | 0.00 | 0.00 | 0.00 | 99 | 1021.2 |
| 20260510123900 | 62 | 272 | 0.0 | 0.0 | 0.00 | 0.00 | 0.00 | 99 | 1021.3 |
| 20260510123356 | 62 | 271 | 0.0 | 0.0 | 0.00 | 0.00 | 0.00 | 99 | 1021.1 |
| 20260510122853 | 62 | 270 | 0.0 | 0.0 | 0.00 | 0.00 | 0.00 | 99 | 1021.1 |
| 20260510122348 | 62 | 275 | 0.0 | 0.0 | 0.00 | 0.00 | 0.00 | 99 | 1021.3 |
| 20260510121844 | 62 | 275 | 0.0 | 0.0 | 0.00 | 0.00 | 0.00 | 99 | 1021.1 |
| 20260510121342 | 62 | 272 | 0.0 | 0.0 | 0.00 | 0.00 | 0.00 | 99 | 1020.9 |
| 20260510120839 | 62 | 270 | 0.0 | 0.0 | 0.00 | 0.00 | 0.00 | 99 | 1020.6 |
| 20260510120337 | 62 | 271 | 0.0 | 0.0 | 0.00 | 0.00 | 0.00 | 99 | 1020.6 |
| 20260510115832 | 62 | 261 | 0.0 | 0.0 | 0.00 | 0.00 | 0.00 | 99 | 1020.5 |
| 20260510115329 | 62 | 274 | 0.0 | 0.0 | 0.00 | 0.00 | 0.00 | 99 | 1020.5 |
| 20260510114825 | 62 | 278 | 0.0 | 0.0 | 0.00 | 0.00 | 0.00 | 99 | 1020.4 |
| 20260510114322 | 62 | 281 | 0.0 | 0.0 | 0.00 | 0.00 | 0.00 | 99 | 1020.4 |
| 20260510113817 | 62 | 286 | 0.0 | 0.0 | 0.00 | 0.00 | 0.00 | 99 | 1020.2 |
| 20260510113314 | 62 | 277 | 0.0 | 0.0 | 0.00 | 0.00 | 0.00 | 99 | 1019.8 |
| 20260510112811 | 62 | 304 | 0.0 | 0.0 | 0.00 | 0.00 | 0.00 | 99 | 1019.7 |
| 20260510112308 | 62 | 299 | 0.0 | 0.0 | 0.00 | 0.00 | 0.00 | 99 | 1019.7 |
| 20260510111803 | 62 | 300 | 0.0 | 0.0 | 0.00 | 0.00 | 0.00 | 99 | 1019.5 |
| 20260510111301 | 62 | 300 | 0.0 | 0.0 | 0.00 | 0.00 | 0.00 | 99 | 1019.6 |
| 20260510110800 | 62 | 290 | 0.0 | 0.0 | 0.00 | 0.00 | 0.00 | 99 | 1019.6 |
| 20260510110258 | 62 | 293 | 0.0 | 0.0 | 0.00 | 0.00 | 0.00 | 99 | 1019.4 |
| 20260510105758 | 62 | 293 | 0.0 | 0.0 | 0.00 | 0.00 | 0.00 | 99 | 1019.4 |
| 20260510105253 | 62 | 293 | 0.0 | 0.0 | 0.00 | 0.00 | 0.00 | 99 | 1019.3 |
| 20260510104750 | 62 | 293 | 0.0 | 0.0 | 0.00 | 0.00 | 0.00 | 99 | 1019.4 |
| 20260510104247 | 62 | 291 | 0.0 | 0.9 | 0.00 | 0.00 | 0.00 | 99 | 1019.3 |
| 20260510103743 | 62 | 289 | 0.0 | 0.9 | 0.00 | 0.00 | 0.00 | 99 | 1019.2 |
| 20260510103241 | 62 | 288 | 0.0 | 0.0 | 0.00 | 0.00 | 0.00 | 99 | 1019.2 |
| 20260510102740 | 62 | 298 | 0.0 | 0.9 | 0.00 | 0.00 | 0.00 | 99 | 1019.0 |
| 20260510102236 | 62 | 317 | 0.0 | 0.9 | 0.00 | 0.00 | 0.00 | 99 | 1018.9 |
| 20260510101734 | 62 | 304 | 0.0 | 0.0 | 0.00 | 0.00 | 0.00 | 99 | 1018.9 |
| 20260510101232 | 62 | 303 | 0.0 | 0.0 | 0.00 | 0.00 | 0.00 | 99 | 1018.8 |
| 20260510100728 | 62 | 310 | 0.0 | 1.7 | 0.00 | 0.00 | 0.00 | 99 | 1018.7 |
| 20260510100226 | 62 | 303 | 0.9 | 0.9 | 0.00 | 0.00 | 0.00 | 99 | 1018.7 |
| 20260510095721 | 62 | 303 | 0.0 | 0.9 | 0.00 | 0.00 | 0.00 | 99 | 1018.6 |
| 20260510095216 | 62 | 303 | 0.0 | 0.9 | 0.00 | 0.00 | 0.00 | 99 | 1018.6 |
| 20260510094715 | 62 | 303 | 0.9 | 1.7 | 0.00 | 0.00 | 0.00 | 99 | 1018.4 |
| 20260510094211 | 62 | 300 | 0.0 | 0.0 | 0.00 | 0.00 | 0.00 | 99 | 1018.5 |
| 20260510093707 | 62 | 300 | 0.9 | 0.9 | 0.00 | 0.00 | 0.00 | 99 | 1018.4 |
| 20260510093204 | 62 | 278 | 0.9 | 0.9 | 0.00 | 0.00 | 0.00 | 99 | 1018.4 |
| 20260510092701 | 62 | 298 | 0.0 | 0.9 | 0.00 | 0.00 | 0.00 | 99 | 1018.3 |
| 20260510092156 | 62 | 303 | 0.0 | 0.0 | 0.00 | 0.00 | 0.00 | 99 | 1018.2 |
| 20260510091652 | 62 | 303 | 0.0 | 0.0 | 0.00 | 0.00 | 0.00 | 99 | 1018.3 |
| 20260510091149 | 61 | 298 | 0.0 | 0.0 | 0.00 | 0.00 | 0.00 | 99 | 1018.3 |
| 20260510090646 | 61 | 300 | 0.0 | 0.0 | 0.00 | 0.00 | 0.00 | 99 | 1018.2 |
| 20260510090142 | 61 | 300 | 0.0 | 0.0 | 0.00 | 0.00 | 0.00 | 99 | 1018.1 |
| 20260510085638 | 61 | 300 | 0.0 | 0.0 | 0.00 | 0.00 | 0.00 | 99 | 1018.1 |
| 20260510085132 | 61 | 302 | 0.0 | 0.0 | 0.00 | 0.00 | 0.00 | 99 | 1018.0 |
| 20260510084629 | 61 | 302 | 0.0 | 0.0 | 0.00 | 0.00 | 0.00 | 99 | 1018.1 |
| 20260510084126 | 61 | 302 | 0.0 | 0.0 | 0.00 | 0.00 | 0.00 | 99 | 1017.7 |
| 20260510083622 | 62 | 302 | 0.0 | 0.0 | 0.00 | 0.00 | 0.00 | 99 | 1017.6 |
| 20260510083119 | 62 | 298 | 0.0 | 0.0 | 0.00 | 0.00 | 0.00 | 99 | 1017.7 |
| 20260510082610 | 62 | 298 | 0.0 | 0.0 | 0.00 | 0.00 | 0.00 | 99 | 1017.6 |
| 20260510082106 | 62 | 298 | 0.0 | 0.0 | 0.00 | 0.00 | 0.00 | 99 | 1017.5 |
| 20260510081601 | 62 | 298 | 0.0 | 0.0 | 0.00 | 0.00 | 0.00 | 99 | 1017.7 |
| 20260510081056 | 62 | 299 | 0.0 | 0.0 | 0.00 | 0.00 | 0.00 | 99 | 1017.5 |
| 20260510080556 | 62 | 301 | 0.0 | 0.0 | 0.00 | 0.00 | 0.00 | 99 | 1017.7 |
| 20260510080053 | 62 | 301 | 0.0 | 0.0 | 0.00 | 0.00 | 0.00 | 99 | 1017.5 |
| 20260510075550 | 62 | 301 | 0.0 | 0.9 | 0.00 | 0.00 | 0.00 | 99 | 1017.6 |
| 20260510075047 | 62 | 289 | 0.0 | 0.0 | 0.00 | 0.00 | 0.00 | 99 | 1017.7 |
| 20260510074545 | 63 | 289 | 0.0 | 0.0 | 0.00 | 0.00 | 0.00 | 99 | 1017.5 |
| 20260510074040 | 63 | 289 | 0.0 | 0.0 | 0.00 | 0.00 | 0.00 | 99 | 1017.4 |
| 20260510073536 | 63 | 289 | 0.0 | 0.0 | 0.00 | 0.00 | 0.00 | 99 | 1017.5 |
| 20260510073033 | 63 | 289 | 0.0 | 0.0 | 0.00 | 0.00 | 0.00 | 99 | 1017.7 |
| 20260510072530 | 63 | 289 | 0.0 | 0.9 | 0.00 | 0.00 | 0.00 | 99 | 1017.6 |
| 20260510072025 | 63 | 289 | 0.0 | 0.0 | 0.00 | 0.00 | 0.00 | 99 | 1017.6 |
| 20260510071521 | 63 | 289 | 0.0 | 0.0 | 0.00 | 0.00 | 0.00 | 99 | 1017.6 |
| 20260510071020 | 63 | 289 | 0.0 | 0.0 | 0.00 | 0.00 | 0.00 | 99 | 1017.8 |
| 20260510070517 | 62 | 289 | 0.0 | 0.0 | 0.00 | 0.00 | 0.00 | 99 | 1017.5 |
| 20260510070013 | 62 | 289 | 0.0 | 0.0 | 0.00 | 0.00 | 0.00 | 99 | 1017.6 |
| 20260510065510 | 62 | 289 | 0.0 | 0.0 | 0.00 | 0.00 | 0.00 | 99 | 1017.7 |
| 20260510065006 | 62 | 289 | 0.0 | 0.0 | 0.00 | 0.00 | 0.00 | 99 | 1018.2 |
| 20260510064503 | 62 | 289 | 0.0 | 0.0 | 0.00 | 0.00 | 0.00 | 99 | 1018.0 |
| 20260510063959 | 63 | 289 | 0.0 | 0.0 | 0.00 | 0.00 | 0.00 | 99 | 1017.8 |
| 20260510063456 | 63 | 289 | 0.0 | 0.0 | 0.00 | 0.00 | 0.00 | 99 | 1018.1 |
| 20260510062954 | 63 | 289 | 0.0 | 0.0 | 0.00 | 0.00 | 0.00 | 99 | 1018.0 |
| 20260510062449 | 63 | 289 | 0.0 | 0.9 | 0.00 | 0.00 | 0.00 | 99 | 1018.1 |
| 20260510061944 | 63 | 289 | 0.0 | 0.0 | 0.00 | 0.00 | 0.00 | 99 | 1018.0 |
| 20260510061441 | 63 | 288 | 0.0 | 0.0 | 0.00 | 0.00 | 0.00 | 99 | 1018.3 |
| 20260510060937 | 63 | 289 | 0.0 | 0.0 | 0.00 | 0.00 | 0.00 | 99 | 1018.2 |
| 20260510060435 | 63 | 289 | 0.0 | 0.9 | 0.00 | 0.00 | 0.00 | 99 | 1018.1 |
| 20260510055930 | 63 | 289 | 0.0 | 0.0 | 0.00 | 0.00 | 0.00 | 99 | 1018.2 |
| 20260510055426 | 63 | 289 | 0.0 | 0.0 | 0.00 | 0.00 | 0.00 | 99 | 1018.1 |
| 20260510054919 | 63 | 287 | 0.9 | 0.9 | 0.00 | 0.00 | 0.00 | 99 | 1017.8 |
| 20260510054414 | 63 | 282 | 0.0 | 0.0 | 0.00 | 0.00 | 0.00 | 99 | 1018.1 |
| 20260510053909 | 63 | 282 | 0.0 | 0.0 | 0.00 | 0.00 | 0.00 | 99 | 1018.0 |
| 20260510053405 | 64 | 285 | 0.0 | 0.9 | 0.00 | 0.00 | 0.00 | 99 | 1018.4 |
| 20260510052902 | 64 | 281 | 0.0 | 0.9 | 0.00 | 0.00 | 0.00 | 99 | 1018.3 |
| 20260510052357 | 64 | 281 | 0.0 | 0.0 | 0.00 | 0.00 | 0.00 | 99 | 1018.2 |
| 20260510051854 | 64 | 281 | 0.0 | 0.0 | 0.00 | 0.00 | 0.00 | 99 | 1018.1 |
| 20260510051350 | 64 | 280 | 0.0 | 0.0 | 0.00 | 0.00 | 0.00 | 99 | 1018.3 |
| 20260510050847 | 64 | 282 | 0.0 | 0.0 | 0.00 | 0.00 | 0.00 | 99 | 1018.4 |
| 20260510050343 | 64 | 274 | 0.0 | 0.9 | 0.00 | 0.00 | 0.00 | 99 | 1018.5 |
| 20260510045835 | 64 | 275 | 0.0 | 0.0 | 0.00 | 0.00 | 0.00 | 99 | 1018.3 |
| 20260510045332 | 64 | 271 | 0.0 | 0.0 | 0.00 | 0.00 | 0.00 | 99 | 1018.3 |
| 20260510044829 | 64 | 270 | 0.0 | 0.0 | 0.00 | 0.00 | 0.00 | 99 | 1018.3 |
| 20260510044326 | 64 | 247 | 0.0 | 0.0 | 0.00 | 0.00 | 0.00 | 99 | 1018.4 |
| 20260510043822 | 64 | 246 | 0.0 | 0.0 | 0.00 | 0.00 | 0.00 | 99 | 1018.3 |
| 20260510043318 | 64 | 231 | 0.0 | 0.0 | 0.00 | 0.00 | 0.00 | 99 | 1018.3 |
| 20260510042816 | 64 | 231 | 0.0 | 1.7 | 0.00 | 0.00 | 0.00 | 99 | 1018.4 |
| 20260510042312 | 64 | 209 | 0.9 | 1.7 | 0.00 | 0.00 | 0.00 | 99 | 1018.4 |
| 20260510041808 | 64 | 240 | 0.0 | 1.7 | 0.00 | 0.00 | 0.00 | 99 | 1018.4 |
| 20260510041305 | 64 | 225 | 0.0 | 1.7 | 0.00 | 0.00 | 0.00 | 99 | 1018.3 |
| 20260510040802 | 64 | 241 | 0.0 | 4.3 | 0.00 | 0.00 | 0.00 | 99 | 1018.4 |
| 20260510040254 | 64 | 251 | 0.9 | 0.9 | 0.00 | 0.00 | 0.00 | 99 | 1018.2 |
| 20260510035749 | 64 | 243 | 1.7 | 1.7 | 0.00 | 0.00 | 0.00 | 99 | 1018.4 |
| 20260510035245 | 64 | 248 | 0.9 | 1.7 | 0.00 | 0.00 | 0.00 | 99 | 1018.4 |
| 20260510034741 | 64 | 244 | 0.9 | 1.7 | 0.00 | 0.00 | 0.00 | 99 | 1018.4 |
| 20260510034239 | 64 | 246 | 0.9 | 1.7 | 0.00 | 0.00 | 0.00 | 99 | 1018.4 |
| 20260510033734 | 64 | 215 | 0.9 | 1.7 | 0.00 | 0.00 | 0.00 | 99 | 1018.2 |
| 20260510033227 | 64 | 253 | 0.0 | 1.7 | 0.00 | 0.00 | 0.00 | 99 | 1018.5 |
| 20260510032723 | 64 | 254 | 0.0 | 1.7 | 0.00 | 0.00 | 0.00 | 98 | 1018.5 |
| 20260510032219 | 65 | 255 | 0.0 | 0.9 | 0.00 | 0.00 | 0.00 | 98 | 1018.6 |
| 20260510031714 | 65 | 254 | 0.0 | 0.9 | 0.00 | 0.00 | 0.00 | 98 | 1018.6 |
| 20260510031211 | 65 | 245 | 1.7 | 1.7 | 0.00 | 0.00 | 0.00 | 98 | 1018.5 |
| 20260510030709 | 65 | 236 | 0.9 | 1.7 | 0.00 | 0.00 | 0.00 | 97 | 1018.6 |
| 20260510030207 | 65 | 254 | 0.0 | 0.0 | 0.00 | 0.00 | 0.00 | 97 | 1018.6 |
| 20260510025704 | 65 | 253 | 0.9 | 2.6 | 0.00 | 0.00 | 0.00 | 97 | 1018.4 |
| 20260510025201 | 65 | 243 | 0.9 | 2.6 | 0.00 | 0.00 | 0.00 | 97 | 1018.4 |
| 20260510024659 | 65 | 216 | 0.9 | 2.6 | 0.00 | 0.00 | 0.00 | 97 | 1018.3 |
| 20260510024155 | 65 | 245 | 0.9 | 1.7 | 0.00 | 0.00 | 0.00 | 97 | 1018.3 |
| 20260510023650 | 65 | 249 | 0.9 | 0.9 | 0.00 | 0.00 | 0.00 | 97 | 1018.3 |
| 20260510023148 | 65 | 251 | 0.0 | 0.9 | 0.00 | 0.00 | 0.00 | 97 | 1018.4 |
| 20260510022643 | 65 | 238 | 1.7 | 4.3 | 0.00 | 0.00 | 0.00 | 97 | 1018.1 |
| 20260510022139 | 66 | 250 | 0.9 | 1.7 | 0.00 | 0.00 | 0.00 | 97 | 1018.0 |
| 20260510021635 | 66 | 243 | 0.0 | 0.9 | 0.00 | 0.00 | 0.00 | 97 | 1018.3 |
| 20260510021132 | 66 | 249 | 0.0 | 0.9 | 0.00 | 0.00 | 0.00 | 96 | 1018.0 |
| 20260510020626 | 66 | 244 | 0.9 | 2.6 | 0.00 | 0.00 | 0.00 | 96 | 1017.8 |
| 20260510020122 | 66 | 222 | 1.7 | 4.3 | 0.00 | 0.00 | 0.00 | 96 | 1017.8 |
| 20260510015618 | 66 | 248 | 0.9 | 0.9 | 0.00 | 0.00 | 0.00 | 95 | 1017.8 |
| 20260510015114 | 66 | 250 | 0.0 | 1.7 | 0.00 | 0.00 | 0.00 | 95 | 1017.7 |
| 20260510014609 | 66 | 196 | 2.6 | 2.6 | 0.00 | 0.00 | 0.00 | 95 | 1017.5 |
| 20260510014107 | 66 | 233 | 0.9 | 2.6 | 0.00 | 0.00 | 0.00 | 95 | 1017.4 |
| 20260510013601 | 66 | 207 | 0.0 | 1.7 | 0.00 | 0.00 | 0.00 | 95 | 1017.4 |
| 20260510013058 | 66 | 239 | 0.9 | 2.6 | 0.00 | 0.00 | 0.00 | 94 | 1017.2 |
| 20260510012557 | 66 | 218 | 1.7 | 1.7 | 0.00 | 0.00 | 0.00 | 94 | 1017.0 |
| 20260510012054 | 66 | 248 | 0.0 | 1.7 | 0.00 | 0.00 | 0.00 | 94 | 1017.0 |
| 20260510011553 | 66 | 231 | 0.9 | 1.7 | 0.00 | 0.00 | 0.00 | 93 | 1017.0 |
| 20260510011049 | 66 | 251 | 0.9 | 1.7 | 0.00 | 0.00 | 0.00 | 93 | 1016.8 |
| 20260510010546 | 66 | 248 | 0.0 | 2.6 | 0.00 | 0.00 | 0.00 | 93 | 1016.9 |
| 20260510010043 | 66 | 187 | 0.9 | 1.7 | 0.00 | 0.00 | 0.00 | 92 | 1016.6 |
| 20260510005539 | 67 | 256 | 0.9 | 1.7 | 0.00 | 0.00 | 0.00 | 92 | 1016.7 |
| 20260510005037 | 67 | 229 | 0.0 | 2.6 | 0.00 | 0.00 | 0.00 | 92 | 1016.7 |
| 20260510004534 | 67 | 255 | 0.0 | 1.7 | 0.00 | 0.00 | 0.00 | 92 | 1016.5 |
| 20260510004033 | 67 | 237 | 0.9 | 2.6 | 0.00 | 0.00 | 0.00 | 92 | 1016.6 |
| 20260510003529 | 67 | 230 | 0.9 | 1.7 | 0.00 | 0.00 | 0.00 | 91 | 1016.6 |
| 20260510003024 | 67 | 209 | 2.6 | 4.3 | 0.00 | 0.00 | 0.00 | 91 | 1016.7 |
| 20260510002520 | 67 | 253 | 0.0 | 0.9 | 0.00 | 0.00 | 0.00 | 90 | 1016.7 |
| 20260510002017 | 67 | 250 | 0.0 | 0.9 | 0.00 | 0.00 | 0.00 | 89 | 1016.6 |
| 20260510001514 | 67 | 249 | 0.0 | 1.7 | 0.00 | 0.00 | 0.00 | 88 | 1016.6 |
| 20260510001013 | 68 | 250 | 0.0 | 0.9 | 0.00 | 0.00 | 0.00 | 88 | 1016.6 |
| 20260510000513 | 68 | 250 | 0.0 | 0.0 | 0.00 | 0.00 | 0.00 | 87 | 1016.4 |
| 20260510000010 | 68 | 250 | 0.0 | 0.0 | 0.00 | 0.00 | 0.00 | 87 | 1016.3 |
| 20260509235507 | 68 | 250 | 0.0 | 0.0 | 0.00 | 0.00 | 0.00 | 87 | 1016.3 |
| 20260509235003 | 68 | 250 | 0.0 | 0.0 | 0.00 | 0.00 | 0.00 | 87 | 1016.0 |
| 20260509234500 | 68 | 250 | 0.0 | 0.0 | 0.00 | 0.00 | 0.00 | 86 | 1016.1 |
| 20260509233958 | 69 | 249 | 0.9 | 0.9 | 0.00 | 0.00 | 0.00 | 85 | 1015.9 |
| 20260509233455 | 69 | 249 | 0.0 | 0.9 | 0.00 | 0.00 | 0.00 | 85 | 1016.0 |
| 20260509232950 | 69 | 251 | 0.0 | 0.0 | 0.00 | 0.00 | 0.00 | 84 | 1015.9 |
| 20260509232449 | 69 | 251 | 0.0 | 0.0 | 0.00 | 0.00 | 0.00 | 84 | 1015.6 |
| 20260509231944 | 69 | 251 | 0.0 | 1.7 | 0.00 | 0.00 | 0.00 | 84 | 1015.9 |
| 20260509231441 | 69 | 250 | 0.0 | 0.9 | 0.00 | 0.00 | 0.00 | 83 | 1015.7 |
| 20260509230939 | 69 | 251 | 0.0 | 0.0 | 0.00 | 0.00 | 0.00 | 83 | 1015.9 |
| 20260509230436 | 70 | 250 | 0.0 | 0.9 | 0.00 | 0.00 | 0.00 | 83 | 1015.7 |
| 20260509225932 | 70 | 250 | 0.9 | 1.7 | 0.00 | 0.00 | 0.00 | 82 | 1015.6 |
| 20260509225428 | 70 | 251 | 0.0 | 0.9 | 0.00 | 0.00 | 0.00 | 82 | 1015.7 |
| 20260509224925 | 70 | 240 | 0.9 | 0.9 | 0.00 | 0.00 | 0.00 | 81 | 1015.6 |
| 20260509224420 | 70 | 251 | 0.9 | 0.9 | 0.00 | 0.00 | 0.00 | 81 | 1015.6 |
| 20260509223917 | 70 | 253 | 0.0 | 1.7 | 0.00 | 0.00 | 0.00 | 81 | 1015.6 |
| 20260509223414 | 71 | 258 | 0.0 | 0.0 | 0.00 | 0.00 | 0.00 | 80 | 1015.6 |
| 20260509222911 | 71 | 249 | 0.0 | 0.0 | 0.00 | 0.00 | 0.00 | 80 | 1015.5 |
| 20260509222406 | 71 | 248 | 0.0 | 0.9 | 0.00 | 0.00 | 0.00 | 80 | 1015.4 |
| 20260509221902 | 71 | 195 | 3.5 | 4.3 | 0.00 | 0.00 | 0.00 | 79 | 1015.4 |
| 20260509221400 | 71 | 251 | 0.0 | 1.7 | 0.00 | 0.00 | 0.00 | 80 | 1015.6 |
| 20260509220855 | 71 | 251 | 0.0 | 1.7 | 0.00 | 0.00 | 0.00 | 80 | 1015.4 |
| 20260509220351 | 71 | 252 | 0.0 | 2.6 | 0.00 | 0.00 | 0.00 | 80 | 1015.3 |
| 20260509215847 | 71 | 220 | 1.7 | 1.7 | 0.00 | 0.00 | 0.00 | 78 | 1015.6 |
| 20260509215344 | 71 | 204 | 1.7 | 2.6 | 0.00 | 0.00 | 0.00 | 78 | 1015.4 |
| 20260509214841 | 71 | 259 | 0.9 | 0.9 | 0.00 | 0.00 | 0.00 | 78 | 1015.4 |
| 20260509214338 | 71 | 256 | 0.0 | 0.9 | 0.00 | 0.00 | 0.00 | 78 | 1015.2 |
| 20260509213835 | 72 | 248 | 0.0 | 1.7 | 0.00 | 0.00 | 0.00 | 78 | 1015.5 |
| 20260509213330 | 72 | 209 | 0.9 | 0.9 | 0.00 | 0.00 | 0.00 | 75 | 1015.3 |
| 20260509212828 | 72 | 255 | 0.9 | 1.7 | 0.00 | 0.00 | 0.00 | 71 | 1015.2 |
| 20260509212326 | 72 | 248 | 0.0 | 1.7 | 0.00 | 0.00 | 0.00 | 72 | 1015.2 |
| 20260509211821 | 72 | 249 | 0.9 | 2.6 | 0.00 | 0.00 | 0.00 | 73 | 1015.2 |
| 20260509211317 | 73 | 288 | 0.0 | 0.0 | 0.00 | 0.00 | 0.00 | 69 | 1015.1 |
| 20260509210814 | 73 | 289 | 0.9 | 1.7 | 0.00 | 0.00 | 0.00 | 72 | 1015.1 |
| 20260509210312 | 72 | 287 | 0.0 | 1.7 | 0.00 | 0.00 | 0.00 | 74 | 1015.2 |
| 20260509205811 | 73 | 309 | 1.7 | 1.7 | 0.00 | 0.00 | 0.00 | 70 | 1015.1 |
| 20260509205307 | 73 | 296 | 0.0 | 0.9 | 0.00 | 0.00 | 0.00 | 72 | 1015.2 |
| 20260509204802 | 72 | 291 | 0.0 | 0.0 | 0.00 | 0.00 | 0.00 | 73 | 1014.9 |
| 20260509204259 | 72 | 287 | 0.9 | 1.7 | 0.00 | 0.00 | 0.00 | 71 | 1014.9 |
| 20260509203755 | 72 | 279 | 0.0 | 0.0 | 0.00 | 0.00 | 0.00 | 71 | 1015.3 |
| 20260509203252 | 72 | 277 | 0.9 | 0.9 | 0.00 | 0.00 | 0.00 | 72 | 1015.1 |
| 20260509202748 | 72 | 291 | 0.0 | 1.7 | 0.00 | 0.00 | 0.00 | 74 | 1015.4 |